"Pseudo-MPEC" for P20M336

Created 2019 Feb 15 23:18:10 UT using Find_Orb

Click here for an explanation of pseudo-MPECs

 
 Astrometry: 
     P20M336  C2019 02 046UfAstrometryC`LFD3WB$:Hc#redacted;uPR=9K$'FRi)0_se%F52
     P20M336  C2019 02 04pLQ=clickJdNG@R;CoK[mP9tvl=hereZV-g[Xm3urQ#?rVZ;%R3%F52
     P20M336  C2019 02 04WHr.aforF^Scr/?QU^Dh3?j5ko`sexplanation_YA2A]X6BR;XQF52

Station data:
(F52) Pan-STARRS 2, Haleakala  (N20.707384 W156.255910)  US/Hawaii.

Orbital elements:  P20M336
   Perihelion 2018 Dec 8.607931 +/- 970 TT = 14:35:25 (JD 2458461.107931)
Epoch 2019 Feb  4.0 TT = JDT 2458518.5   Earth MOID: 0.4947   Ma: 0.0046
M  14.03355532 +/- 50               (J2000 ecliptic)          AutoNEOCP
n   0.24452081 +/- 0.139            Peri.  204.09462 +/- 90
a   2.53274905 +/- 0.959            Node   250.44627 +/- 34
e   0.4191787 +/- 0.208             Incl.   10.94787 +/- 37
P   4.03                   H 20.1   G  0.15   U 11.5  SR
q 1.47107441 +/- 2.05    Q 3.59442370 +/- 104
From 3 observations 2019 Feb. 4 (33.6 min); mean residual 0".13
Residuals in arcseconds: 
190204 F52  .12-  .04+    190204 F52  .24+  .08-    190204 F52  .12-  .04+    

Ephemerides (geocentric):
Date (UTC) HH   RA              Dec         delta   r     elong  mag " sig PA
---- -- -- --  -------------   -----------  ------ ------ -----  --- ---- ---
2019 02 15 23  07 56 26.848   -04 00 51.68  .68111 1.5986 146.0 21.3 2383 164
2019 02 16 00  07 56 26.909   -04 00 40.20  .68137 1.5987 146.0 21.3 2396 164
2019 02 16 01  07 56 26.974   -04 00 28.71  .68163 1.5989 146.0 21.3 2408 164
2019 02 16 02  07 56 27.044   -04 00 17.19  .68189 1.5990 145.9 21.3 2420 164
2019 02 16 03  07 56 27.117   -04 00 05.64  .68215 1.5991 145.9 21.3 2432 164
2019 02 16 04  07 56 27.194   -03 59 54.08  .68241 1.5993 145.9 21.3 2445 164
2019 02 16 05  07 56 27.275   -03 59 42.48  .68268 1.5994 145.9 21.3 2457 164
2019 02 16 06  07 56 27.360   -03 59 30.87  .68294 1.5996 145.8 21.3 2469 164
2019 02 16 07  07 56 27.449   -03 59 19.22  .68320 1.5997 145.8 21.3 2482 164
2019 02 16 08  07 56 27.542   -03 59 07.56  .68346 1.5999 145.8 21.3 2494 164
2019 02 16 09  07 56 27.638   -03 58 55.87  .68372 1.6000 145.8 21.3 2507 164
2019 02 16 10  07 56 27.739   -03 58 44.16  .68399 1.6001 145.7 21.3 2519 164
2019 02 16 11  07 56 27.844   -03 58 32.42  .68425 1.6003 145.7 21.3 2532 164
2019 02 16 12  07 56 27.952   -03 58 20.66  .68451 1.6004 145.7 21.3 2544 164
2019 02 16 13  07 56 28.065   -03 58 08.88  .68478 1.6006 145.6 21.3 2557 164
2019 02 16 14  07 56 28.181   -03 57 57.07  .68504 1.6007 145.6 21.3 2569 164
2019 02 16 15  07 56 28.302   -03 57 45.24  .68530 1.6009 145.6 21.3 2582 163
2019 02 16 16  07 56 28.426   -03 57 33.38  .68557 1.6010 145.6 21.3 2595 163
2019 02 16 17  07 56 28.554   -03 57 21.50  .68583 1.6011 145.5 21.3 2607 163
2019 02 16 18  07 56 28.686   -03 57 09.60  .68610 1.6013 145.5 21.3 2620 163
2019 02 16 19  07 56 28.822   -03 56 57.68  .68636 1.6014 145.5 21.3 2633 163
2019 02 16 20  07 56 28.962   -03 56 45.73  .68663 1.6016 145.5 21.3 2646 163
2019 02 16 21  07 56 29.106   -03 56 33.76  .68689 1.6017 145.4 21.3 2659 163
2019 02 16 22  07 56 29.254   -03 56 21.76  .68716 1.6019 145.4 21.3 2671 163
2019 02 16 23  07 56 29.406   -03 56 09.75  .68742 1.6020 145.4 21.3 2684 163
2019 02 17 00  07 56 29.562   -03 55 57.71  .68769 1.6021 145.4 21.3 2697 163
2019 02 17 01  07 56 29.721   -03 55 45.64  .68795 1.6023 145.3 21.3 2710 163
2019 02 17 02  07 56 29.885   -03 55 33.56  .68822 1.6024 145.3 21.4 2723 163
2019 02 17 03  07 56 30.052   -03 55 21.45  .68849 1.6026 145.3 21.4 2736 163
2019 02 17 04  07 56 30.224   -03 55 09.32  .68875 1.6027 145.2 21.4 2749 163
2019 02 17 05  07 56 30.399   -03 54 57.17  .68902 1.6029 145.2 21.4 2763 163
2019 02 17 06  07 56 30.578   -03 54 44.99  .68929 1.6030 145.2 21.4 2776 163
2019 02 17 07  07 56 30.762   -03 54 32.79  .68956 1.6031 145.2 21.4 2789 163
2019 02 17 08  07 56 30.949   -03 54 20.57  .68982 1.6033 145.1 21.4 2802 163
2019 02 17 09  07 56 31.140   -03 54 08.33  .69009 1.6034 145.1 21.4 2815 163
2019 02 17 10  07 56 31.335   -03 53 56.07  .69036 1.6036 145.1 21.4 2829 163
2019 02 17 11  07 56 31.534   -03 53 43.78  .69063 1.6037 145.1 21.4 2842 163
2019 02 17 12  07 56 31.736   -03 53 31.47  .69090 1.6039 145.0 21.4 2855 163
2019 02 17 13  07 56 31.943   -03 53 19.14  .69117 1.6040 145.0 21.4 2869 163
2019 02 17 14  07 56 32.154   -03 53 06.79  .69144 1.6042 145.0 21.4 2882 163
2019 02 17 15  07 56 32.368   -03 52 54.41  .69171 1.6043 144.9 21.4 2896 163
2019 02 17 16  07 56 32.587   -03 52 42.02  .69198 1.6044 144.9 21.4 2909 163
2019 02 17 17  07 56 32.809   -03 52 29.60  .69225 1.6046 144.9 21.4 2923 163
2019 02 17 18  07 56 33.036   -03 52 17.16  .69252 1.6047 144.9 21.4 2936 163
2019 02 17 19  07 56 33.266   -03 52 04.70  .69279 1.6049 144.8 21.4 2950 162
2019 02 17 20  07 56 33.500   -03 51 52.22  .69306 1.6050 144.8 21.4 2963 162
2019 02 17 21  07 56 33.738   -03 51 39.71  .69333 1.6052 144.8 21.4 2977 162
2019 02 17 22  07 56 33.980   -03 51 27.19  .69360 1.6053 144.8 21.4 2991 162